[[{"header":{"parameterUnit":"m.s-1","parameterCategory":1,"la1":30.2991,"la2":30.254,"lo1":-89.0895,"lo2":-89.0444,"dy":0.0017,"dx":0.0017,"nx":28,"ny":28,"refTime":"2024-05-01T21:00:00:Z","depth":0,"parameterNumber":2,"parameterNumberName":"U-component_of_WINDS"},"data":[0,0,0,0,0,0,0,0,0,0,0,0,0,0,0,0,0,0,0,0,0,0,0,0,0,0,0,0,0,0,0,0,0,0,0,0,0,0,0,0,0,0,0,0,0,0,0,0,0,0,0,0,0,0,0,0,0,0,-3.7704,-3.7704,0,-3.7699,-3.7699,-3.7699,-3.7629,-3.7628,-3.7626,-3.7624,-3.7619,-3.7621,-3.7622,0,0,0,0,0,0,0,0,0,0,0,0,0,-3.7653,-3.7654,-3.7704,-3.7704,-3.7704,-3.7699,-3.7699,-3.7699,-3.763,-3.7627,-3.7625,-3.7623,-3.7619,-3.7621,-3.7622,0,0,0,0,0,0,0,0,0,0,0,0,0,-3.7664,-3.7655,-3.7704,-3.7668,-3.7665,-3.7699,-3.7699,-3.7699,-3.763,-3.7627,-3.7625,-3.7622,-3.7618,-3.762,-3.7623,-3.769,0,0,-3.763,-3.7631,0,0,0,0,0,0,0,0,-3.7664,-3.7666,-3.7674,-3.7671,-3.7667,-3.7662,-3.7679,-3.7696,-3.7631,-3.7643,-3.7624,-3.7621,-3.7636,-3.7636,-3.7641,-3.769,-3.769,-3.763,-3.7631,-3.7632,-3.7633,0,0,0,0,0,0,0,-3.7663,-3.7666,-3.7702,-3.7674,-3.767,-3.7653,-3.7652,-3.7682,-3.7655,-3.7642,-3.7637,-3.7637,-3.7633,-3.7639,-3.7641,-3.7689,-3.763,-3.7632,-3.7633,-3.7634,-3.7793,-3.7795,0,0,0,0,0,0,-3.7667,-3.7666,-3.7702,-3.7702,-3.7659,-3.7656,-3.7655,-3.7666,-3.7654,-3.765,-3.764,-3.7634,-3.7637,-3.7638,-3.764,-3.7717,-3.7632,-3.7634,-3.7636,-3.779,-3.7793,-3.7796,0,0,0,0,0,0,-3.7666,-3.7671,-3.7702,-3.7682,-3.7685,-3.766,-3.7674,-3.7668,-3.7673,-3.7652,-3.7647,-3.7651,-3.7635,-3.7637,-3.7678,-3.7716,-3.7635,-3.7638,-3.7786,-3.7791,-3.7795,-3.7873,0,0,0,0,0,0,-3.7665,-3.7671,-3.7696,-3.7684,-3.7686,-3.774,-3.7676,-3.767,-3.7678,-3.767,-3.7661,-3.7657,-3.7633,-3.7675,-3.768,-3.7718,-3.7639,-3.7783,-3.7788,-3.7793,-3.7866,-3.7879,-3.789,0,0,0,0,0,-3.7664,-3.7718,-3.7698,-3.7703,-3.7717,-3.7742,-3.7744,-3.7715,-3.7681,-3.7706,-3.7692,-3.7657,-3.7712,-3.768,-3.7685,-3.7724,-3.778,-3.7787,-3.7793,-3.7861,-3.7876,-3.7889,0,0,0,0,0,0,-3.7736,-3.7716,-3.7693,-3.7745,-3.7746,-3.7731,-3.7761,-3.7732,-3.7742,-3.7735,-3.7699,-3.7698,-3.7744,-3.7738,-3.7703,-3.7788,-3.774,-3.7748,-3.779,-3.7804,-3.7816,-3.7815,-3.7641,0,0,0,0,0,-3.7758,-3.778,-3.7762,-3.781,-3.7811,-3.7787,-3.7796,-3.7774,-3.7773,-3.7773,-3.7763,-3.7763,-3.778,-3.7792,-3.7807,-3.7866,-3.7863,-3.7896,-3.7907,-3.7917,-3.7923,-3.7954,-3.7968,-3.7817,-3.7817,-3.7817,0,0,-3.7804,-3.7796,-3.7812,-3.7824,-3.7822,-3.7845,-3.7787,-3.7814,-3.7831,-3.7777,-3.7815,-3.7808,-3.7806,-3.7856,-3.7878,-3.7853,-3.7965,-3.7925,-3.7933,-3.7934,-3.7962,-3.7976,-3.7988,-3.7822,-3.7821,-3.782,0,0,-3.7898,-3.7895,-3.7934,-3.7934,-3.7931,-3.7915,-3.7924,-3.7914,-3.7906,-3.7944,-3.7904,-3.7924,-3.7955,-3.7955,-3.7959,-3.8056,-3.8023,-3.8062,-3.8121,-3.8151,-3.8163,-3.8173,-3.8207,-3.8219,-3.8069,-3.8069,-3.8069,0,-3.7955,-3.7989,-3.7958,-3.7988,-3.7994,-3.7947,-3.7987,-3.7988,-3.7991,-3.7996,-3.7969,-3.8006,-3.8002,-3.8051,-3.8075,-3.808,-3.8089,-3.8061,-3.8164,-3.8174,-3.8183,-3.8214,-3.8227,-3.8073,-3.8073,-3.8072,-3.8072,0,-3.8058,-3.8082,-3.8114,-3.8118,-3.8129,-3.8163,-3.8138,-3.8152,-3.813,-3.8116,-3.8155,-3.8149,-3.8161,-3.8171,-3.815,-3.8218,-3.8202,-3.817,-3.812,-3.8202,-3.8231,-3.8243,-3.808,-3.8078,-3.8077,-3.8076,0,0,-3.8196,-3.8183,-3.8195,-3.8197,-3.8191,-3.8209,-3.8243,-3.8255,-3.8267,-3.8272,-3.8298,-3.8325,-3.8295,-3.83,-3.8279,-3.8305,-3.8381,-3.827,-3.8269,-3.8289,-3.8454,-3.8477,-3.8492,-3.8361,-3.8363,-3.8365,-3.8454,0,-3.8286,-3.8341,-3.8315,-3.8372,-3.8394,-3.8351,-3.8379,-3.8379,-3.8368,-3.8385,-3.8373,-3.8392,-3.8352,-3.8355,-3.8379,-3.8367,-3.8413,-3.836,-3.8384,-3.8385,-3.8383,-3.8507,-3.8531,-3.8616,-3.8465,-3.8467,-3.8469,0,-3.8398,-3.8407,-3.8467,-3.8458,-3.8466,-3.8492,-3.8501,-3.8518,-3.8518,-3.8507,-3.8514,-3.8486,-3.8518,-3.847,-3.8513,-3.8477,-3.8486,-3.8481,-3.8484,-3.8483,-3.843,-3.8508,-3.8642,-3.8654,-3.8486,-3.8485,-3.8483,0,-3.8491,-3.8518,-3.8557,-3.856,-3.8551,-3.857,-3.8567,-3.8564,-3.8573,-3.8581,-3.8587,-3.8599,-3.8606,-3.8616,-3.8592,-3.856,-3.8638,-3.8589,-3.863,-3.863,-3.8646,-3.8645,-3.8782,-3.8655,-3.8655,-3.8655,-3.8655,0,-3.8593,-3.8631,-3.8598,-3.8622,-3.8664,-3.8634,-3.8676,-3.8669,-3.8666,-3.8688,-3.8652,-3.8673,-3.8642,-3.866,-3.8642,-3.868,-3.8683,-3.8676,-3.867,-3.8678,-3.8679,-3.8681,-3.8674,-3.8658,-3.8658,-3.8657,-3.8656,0,-3.8702,-3.8683,-3.8722,-3.8711,-3.8709,-3.874,-3.873,-3.8751,-3.8738,-3.8766,-3.8771,-3.8751,-3.877,-3.8748,-3.8766,-3.8754,-3.8805,-3.8792,-3.8805,-3.88,-3.8842,-3.8838,-3.8984,-3.9001,-3.8865,-3.8867,-3.8868,0,-3.8768,-3.8796,-3.8788,-3.88,-3.8799,-3.8819,-3.8828,-3.8801,-3.8812,-3.8814,-3.8835,-3.8852,-3.8863,-3.8897,-3.8884,-3.8897,-3.8883,-3.8933,-3.8885,-3.8891,-3.8882,-3.888,-3.8882,-3.8942,-3.8944,-3.8945,-3.8946,0,-3.8886,-3.8875,-3.8889,-3.8901,-3.8913,-3.8921,-3.8926,-3.8938,-3.8909,-3.8924,-3.8943,-3.8952,-3.8971,-3.8988,-3.8998,-3.8995,-3.8966,-3.8962,-3.8972,-3.8979,-3.8985,-3.8981,-3.883,-3.8958,-3.8957,-3.8956,-3.8956,-3.8955,-3.8974,-3.8997,-3.8995,-3.9013,-3.9014,-3.9019,-3.9039,-3.9029,-3.9044,-3.9057,-3.904,-3.9065,-3.9064,-3.9074,-3.9075,-3.9093,-3.9072,-3.9087,-3.909,-3.9094,-3.9099,-3.8984,-3.9095,-3.9095,-3.9095,-3.9094,-3.9094,0,-3.9089,-3.9086,-3.9103,-3.9111,-3.9125,-3.9097,-3.9102,-3.9115,-3.9136,-3.9138,-3.9151,-3.9173,-3.919,-3.9178,-3.9192,-3.9209,-3.9196,-3.9213,-3.9211,-3.921,-3.9118,-3.9107,-3.9223,-3.9223,-3.9223,-3.9223,-3.9223,-3.9223,-3.915,-3.9187,-3.9176,-3.9214,-3.921,-3.9233,-3.9238,-3.9243,-3.9244,-3.9271,-3.9284,-3.9277,-3.9273,-3.9287,-3.9301,-3.9297,-3.9303,-3.9325,-3.9316,-3.923,-3.9217,-3.9205,-3.9194,-3.9327,-3.9327,-3.9406,-3.9407,-3.9408]},{"header":{"parameterUnit":"m.s-1","parameterCategory":1,"la1":30.2991,"la2":30.254,"lo1":-89.0895,"lo2":-89.0444,"dy":0.0017,"dx":0.0017,"nx":28,"ny":28,"refTime":"2024-05-01T21:00:00:Z","depth":0,"parameterNumber":3,"parameterNumberName":"V-component_of_WINDS"},"data":[0,0,0,0,0,0,0,0,0,0,0,0,0,0,0,0,0,0,0,0,0,0,0,0,0,0,0,0,0,0,0,0,0,0,0,0,0,0,0,0,0,0,0,0,0,0,0,0,0,0,0,0,0,0,0,0,0,0,3.5034,3.5034,0,3.5018,3.5018,3.5018,3.4964,3.4963,3.4962,3.4961,3.4946,3.4946,3.4947,0,0,0,0,0,0,0,0,0,0,0,0,0,3.5019,3.502,3.5034,3.5034,3.5033,3.5018,3.5018,3.5018,3.4964,3.4963,3.4961,3.496,3.4945,3.4946,3.4947,0,0,0,0,0,0,0,0,0,0,0,0,0,3.5017,3.502,3.5034,3.5005,3.5002,3.5018,3.5018,3.5018,3.4965,3.4963,3.4961,3.4959,3.4945,3.4946,3.4947,3.499,0,0,3.495,3.4951,0,0,0,0,0,0,0,0,3.5017,3.5017,3.5009,3.5007,3.5004,3.4991,3.5007,3.5008,3.4965,3.4979,3.4961,3.4958,3.4962,3.4962,3.4963,3.4989,3.4989,3.4951,3.4951,3.4952,3.4952,0,0,0,0,0,0,0,3.5017,3.5018,3.5028,3.5009,3.5006,3.4993,3.4991,3.5007,3.4981,3.4978,3.4974,3.4973,3.496,3.4962,3.4962,3.4989,3.4951,3.4952,3.4952,3.4953,3.505,3.5052,0,0,0,0,0,0,3.5021,3.5018,3.5028,3.5027,3.5006,3.4995,3.4992,3.4997,3.4981,3.4976,3.4974,3.497,3.4961,3.4961,3.4961,3.5011,3.4952,3.4953,3.4953,3.5048,3.5051,3.5053,0,0,0,0,0,0,3.5021,3.5023,3.5029,3.5022,3.5021,3.4997,3.5003,3.4998,3.4999,3.4978,3.4973,3.498,3.496,3.496,3.4983,3.5009,3.4953,3.4954,3.5046,3.5049,3.5052,3.511,0,0,0,0,0,0,3.5021,3.5023,3.5038,3.5022,3.5022,3.5051,3.5005,3.4999,3.5001,3.4996,3.4983,3.4979,3.4958,3.4982,3.4985,3.501,3.4955,3.5044,3.5047,3.5051,3.5105,3.5114,3.5122,0,0,0,0,0,3.5021,3.5055,3.504,3.5041,3.5041,3.5052,3.5052,3.5027,3.5003,3.5019,3.5006,3.4979,3.5006,3.4985,3.4987,3.5013,3.5042,3.5046,3.505,3.5101,3.5112,3.5121,0,0,0,0,0,0,3.5075,3.5053,3.5035,3.5065,3.5061,3.5043,3.5062,3.504,3.5042,3.5037,3.5007,3.5004,3.5032,3.5025,3.5002,3.5054,3.502,3.5025,3.5058,3.5068,3.5076,3.5077,3.4956,0,0,0,0,0,3.5091,3.5102,3.5082,3.5111,3.5109,3.5086,3.509,3.5072,3.5066,3.5064,3.5052,3.5048,3.5056,3.5062,3.5068,3.5104,3.5101,3.5123,3.5132,3.5139,3.5143,3.5162,3.5172,3.5067,3.5067,3.5067,0,0,3.5123,3.5112,3.5121,3.5121,3.5116,3.5128,3.5085,3.51,3.5108,3.5067,3.5088,3.5079,3.5073,3.5103,3.5116,3.5098,3.5172,3.5144,3.515,3.515,3.5168,3.5178,3.5187,3.507,3.5069,3.5069,0,0,3.5188,3.5181,3.5204,3.52,3.5192,3.5177,3.5183,3.5169,3.5161,3.5182,3.5151,3.5162,3.5175,3.5172,3.5172,3.5238,3.5214,3.5241,3.5283,3.5303,3.5311,3.5318,3.5341,3.535,3.5245,3.5246,3.5246,0,3.5229,3.5246,3.5219,3.5236,3.5237,3.52,3.5224,3.5221,3.5216,3.5218,3.5198,3.5215,3.5208,3.5238,3.5254,3.5255,3.5261,3.5241,3.5312,3.5319,3.5325,3.5347,3.5356,3.5249,3.5249,3.5248,3.5248,0,3.5297,3.5309,3.5329,3.5325,3.5329,3.5349,3.5326,3.5333,3.5315,3.5302,3.5325,3.5315,3.5319,3.5325,3.5307,3.5352,3.5341,3.5317,3.5281,3.5339,3.5359,3.5367,3.5254,3.5252,3.5251,3.5251,0,0,3.5394,3.5376,3.5384,3.5382,3.5371,3.538,3.54,3.5403,3.541,3.5408,3.5423,3.5436,3.5414,3.5415,3.5397,3.5414,3.5466,3.5388,3.5387,3.5402,3.5515,3.5533,3.5543,3.545,3.5452,3.5453,3.5515,0,3.5456,3.5487,3.5464,3.5499,3.551,3.5476,3.5493,3.5489,3.5477,3.5486,3.5474,3.5483,3.5454,3.5454,3.5469,3.5457,3.5488,3.5452,3.5465,3.5465,3.5466,3.5553,3.5572,3.5631,3.5523,3.5524,3.5525,0,3.5531,3.5533,3.5569,3.5557,3.556,3.5576,3.5577,3.5586,3.5581,3.5571,3.5573,3.555,3.5569,3.5535,3.556,3.5536,3.554,3.5535,3.5537,3.5536,3.5498,3.5555,3.5649,3.5658,3.5537,3.5537,3.5536,0,3.5598,3.561,3.5633,3.5632,3.5619,3.563,3.5625,3.5618,3.5622,3.5624,3.5626,3.563,3.5632,3.5636,3.5616,3.5593,3.5644,3.5608,3.5637,3.5638,3.5648,3.5648,3.5744,3.5652,3.5652,3.5652,3.5652,0,3.5669,3.5692,3.5663,3.5677,3.5703,3.5677,3.5703,3.5695,3.5689,3.5701,3.5672,3.5685,3.5657,3.5667,3.5652,3.5675,3.5676,3.567,3.5665,3.5672,3.5673,3.5674,3.5669,3.5654,3.5654,3.5654,3.5653,0,3.5748,3.5729,3.5752,3.5737,3.5734,3.5754,3.5742,3.5755,3.5742,3.5758,3.576,3.5741,3.5751,3.5731,3.5739,3.5728,3.5761,3.5751,3.5763,3.5759,3.5789,3.5787,3.5889,3.5901,3.5802,3.5803,3.5804,0,3.5793,3.5811,3.5798,3.5804,3.5801,3.5811,3.5815,3.5791,3.5796,3.5792,3.5806,3.5814,3.5818,3.5836,3.5823,3.5829,3.5817,3.5853,3.5818,3.5825,3.5818,3.5817,3.5818,3.586,3.5861,3.5862,3.5863,0,3.5877,3.5867,3.5873,3.5877,3.5882,3.5884,3.5883,3.589,3.5865,3.5872,3.5882,3.5886,3.5894,3.5902,3.5905,3.59,3.5878,3.5874,3.5881,3.5888,3.5894,3.5891,3.5782,3.5872,3.5871,3.587,3.587,3.5869,3.594,3.5954,3.5948,3.5956,3.5953,3.5954,3.5965,3.5955,3.5962,3.5967,3.5952,3.5966,3.5961,3.5962,3.596,3.5971,3.5955,3.5965,3.5967,3.597,3.5975,3.5893,3.5971,3.5971,3.5971,3.597,3.597,0,3.6022,3.6016,3.6024,3.6025,3.6032,3.601,3.6009,3.6016,3.6028,3.6025,3.6031,3.6043,3.6051,3.6039,3.6044,3.6055,3.6045,3.6058,3.6056,3.6056,3.5989,3.5982,3.6066,3.6066,3.6066,3.6066,3.6066,3.6066,3.6065,3.6087,3.6077,3.6098,3.6093,3.6105,3.6106,3.6107,3.6105,3.6119,3.6126,3.6118,3.6112,3.6117,3.6124,3.612,3.6123,3.6139,3.6132,3.607,3.606,3.6051,3.6045,3.614,3.6141,3.6198,3.6199,3.6199]}]]